Location: Unspecified
(0.0000°N, 0.0000°E)
Time: 23:57:59
(UTC+00:00)

Transit 2A Rocket - All Passes

Search period start: 21 October 2014 00:00
Search period end: 31 October 2014 00:00
Orbit: 591 x 917 km, 66.7° (Epoch: 20 October)

Date Brightness Start Highest point End Pass type
(mag) Time Alt. Az. Time Alt. Az. Time Alt. Az.
21 Oct - 04:17:02 10° NNW 04:22:58 70° ENE 04:29:04 10° SSE visible
21 Oct - 16:49:40 10° SW 16:53:40 36° WNW 16:57:35 10° N daylight
22 Oct - 03:35:53 10° N 03:41:18 36° ENE 03:46:50 10° SE visible
22 Oct - 05:19:32 10° WNW 05:23:46 20° WSW 05:28:04 10° SSW visible
22 Oct - 16:07:39 10° SSW 16:12:01 89° ESE 16:16:16 10° NNE daylight
23 Oct - 02:55:33 10° NNE 02:59:37 19° ENE 03:03:44 10° ESE visible
23 Oct - 04:36:33 10° NW 04:42:03 38° WSW 04:47:39 10° S visible
23 Oct - 15:26:21 10° S 15:30:21 35° ESE 15:34:15 10° NE daylight
24 Oct - 03:54:22 10° NNW 04:00:21 73° WSW 04:06:27 10° SSE visible
24 Oct - 14:46:02 10° SSE 14:48:38 16° ESE 14:51:12 10° ENE daylight
24 Oct - 16:27:51 10° WSW 16:30:57 19° WNW 16:34:01 10° NNW daylight
25 Oct - 03:12:46 10° N 03:18:39 60° ENE 03:24:40 10° SSE visible
25 Oct - 04:59:21 10° W 05:01:11 11° WSW 05:03:02 10° SW visible
25 Oct - 15:45:09 10° SW 15:49:17 45° WNW 15:53:21 10° N daylight
26 Oct - 02:31:45 10° N 02:36:58 31° ENE 02:42:16 10° SE visible
26 Oct - 04:14:46 10° WNW 04:19:25 23° WSW 04:24:07 10° SSW visible
26 Oct - 15:03:17 10° SSW 15:07:37 72° ESE 15:11:51 10° NNE daylight
27 Oct - 01:51:43 10° NE 01:55:16 16° ENE 01:58:50 10° ESE visible
27 Oct - 03:32:00 10° NW 03:37:42 44° WSW 03:43:28 10° S visible
27 Oct - 14:22:09 10° S 14:25:56 29° ESE 14:29:38 10° NE daylight
28 Oct - 02:49:58 10° NNW 02:55:59 84° WSW 03:02:06 10° SSE visible
28 Oct - 13:42:19 10° SE 13:44:12 13° ESE 13:46:04 10° E daylight
28 Oct - 15:23:05 10° SW 15:26:31 23° WNW 15:29:56 10° NNW daylight
29 Oct - 02:08:29 10° N 02:14:17 51° ENE 02:20:11 10° SE visible
29 Oct - 03:53:52 10° W 03:56:47 14° WSW 03:59:43 10° SW visible
29 Oct - 14:40:36 10° SSW 14:44:51 56° WNW 14:49:01 10° N daylight
30 Oct - 01:27:38 10° NNE 01:32:35 27° ENE 01:37:35 10° SE night (unlit)
30 Oct - 03:10:02 10° NW 03:15:01 27° WSW 03:20:04 10° SSW visible
30 Oct - 13:58:55 10° S 14:03:10 57° ESE 14:07:21 10° NNE daylight
